Location: Dittelbrunn
(50.0738°N, 10.2196°E)
Time: 16:47:40
(UTC+00:00)

Cosmos 1048 Rocket - Pass Details

Date: 18 September 2020
Orbit: 742 x 792 km, 74.0° (Epoch: 31 October)

Event Time Altitude Azimuth Distance (km) Brightness Sun altitude
Rises 19:23:31 0° 334° (NNW) 3,256 8.1 -19.1°
Reaches altitude 10° 19:25:54 10° 332° (NNW) 2,332 7.3 -19.4°
Maximum altitude 19:31:11 71° 250° (WSW) 830 4.2 -20.1°
Enters shadow 19:34:13 26° 172° (S) 1,511 5.2 -20.6°
